Location: Narrabri
(30.3170°S, 149.7830°E)
Time: 14:08:49
(UTC+11:00)

OTV 5 (USA 277) - Visible Passes

Search period start: 17 November 2018 00:00
Search period end: 27 November 2018 00:00
Orbit: 339 x 348 km, 54.5° (Epoch: 14 November)

Date Brightness Start Highest point End Pass type
(mag) Time Alt. Az. Time Alt. Az. Time Alt. Az.
18 Nov ? 20:41:41 10° NNW 20:44:19 33° NE 20:45:15 26° E visible
19 Nov ? 04:44:21 10° S 04:46:06 14° SE 04:47:49 10° ESE visible
19 Nov ? 21:05:01 10° WNW 21:07:49 43° SW 21:10:40 10° SSE visible
20 Nov ? 05:06:54 10° SSW 05:09:49 53° SE 05:12:41 10° NE visible
20 Nov ? 21:30:13 10° WSW 21:31:34 12° SW 21:32:55 10° SSW visible
21 Nov ? 03:56:41 10° S 03:58:19 14° SE 03:59:56 10° ESE visible
21 Nov ? 20:17:13 10° WNW 20:20:02 46° SW 20:22:54 10° SSE visible
22 Nov ? 04:19:08 10° SSW 04:22:02 49° SE 04:24:53 10° NE visible
22 Nov ? 20:42:17 10° WSW 20:43:45 13° SW 20:45:14 10° S visible
23 Nov?03:13:51E03:13:51E03:06:42SSWvisible
23 Nov ? 04:45:58 27° NW 04:45:58 27° NW 04:48:03 10° N visible
